Osceola, IA

2:35 AM CST on February 09, 2016 (GMT -0600)
Osceola Municipal

Weather History for KI75 - October, 2012

Change the Weather History Date:

Friday, October 12, 2012

  Actual Average (KLWD) Record (KLWD)
Temperature  
Mean Temperature 48 °F 54 °F  
Max Temperature 61 °F 65 °F 87 °F (1975)
Min Temperature 34 °F 44 °F 28 °F (2006)
Degree Days  
Heating Degree Days 18 11  
Month to date heating degree days 111  
Since 1 July heating degree days 211  
Cooling Degree Days 0 0  
Month to date cooling degree days 11  
Year to date cooling degree days 944  
Moisture  
Dew Point 26 °F    
Average Humidity 45    
Maximum Humidity 87    
Minimum Humidity 20    
Precipitation  
Precipitation 0.02 in 0.10 in 0.95 in (1969)
Month to date precipitation 0.91  
Sea Level Pressure  
Sea Level Pressure 30.28 in    
Wind  
Wind Speed 9 mph (East)    
Max Wind Speed 15 mph    
Max Gust Speed 24 mph    
Visibility 10 miles    
Events Rain    
T = Trace of Precipitation, MM = Missing Value Source: NWS Daily Summary

Daily Weather History Graph

Daily Weather History Graph

Search for Another Location

Airport or City:

Trip Planner

Search our weather history database for the weather conditions in past years. The results will help you decide how hot, cold, wet, or windy it might be!

Date:

Astronomy

Oct. 12, 2012 Rise Set
Actual Time 7:23 AM CDT 6:37 PM CDT
Civil Twilight 6:55 AM CDT 7:05 PM CDT
Nautical Twilight 6:24 AM CDT 7:37 PM CDT
Astronomical Twilight 5:52 AM CDT 8:09 PM CDT
Moon 4:05 AM CDT (10/12) 4:49 PM CDT (10/12)
Length of Visible Light 12h 09m
Length of Day
11h 14m
Waning Crescent, 10% of the Moon is Illuminated
Oct 12
Waning Crescent
Oct 15
New
Oct 21
First Quarter
Oct 29
Full
Nov 6
Last Quarter

Hourly Weather History & Observations

Time (CDT) Temp. Windchill Dew Point Humidity Pressure Visibility Wind Dir Wind Speed Gust Speed Precip Events Conditions
12:15 AM 46.4 °F 41.5 °F 25.9 °F 45% 30.33 in 10.0 mi North 10.4 mph - N/A   Overcast
12:35 AM 46.4 °F 42.4 °F 25.7 °F 44% 30.33 in 10.0 mi North 8.1 mph - N/A   Overcast
12:55 AM 46.4 °F 41.9 °F 25.2 °F 43% 30.33 in 10.0 mi NNE 9.2 mph - N/A   Overcast
1:15 AM 46.2 °F 42.7 °F 24.3 °F 42% 30.34 in 10.0 mi NNE 6.9 mph - N/A   Overcast
1:35 AM 46.0 °F 42.5 °F 23.7 °F 42% 30.34 in 10.0 mi NNE 6.9 mph - N/A   Overcast
1:55 AM 45.9 °F 41.7 °F 22.8 °F 40% 30.34 in 10.0 mi NNE 8.1 mph - N/A   Overcast
2:15 AM 45.9 °F 40.4 °F 20.3 °F 36% 30.34 in 10.0 mi NNE 11.5 mph - N/A   Overcast
2:35 AM 45.7 °F 41.0 °F 19.4 °F 35% 30.35 in 10.0 mi NNE 9.2 mph - N/A   Overcast
3:15 AM 45.0 °F 40.1 °F 18.9 °F 35% 30.34 in 10.0 mi NNE 9.2 mph - N/A   Overcast
3:35 AM 44.6 °F 39.2 °F 18.9 °F 36% 30.34 in 10.0 mi NNE 10.4 mph - N/A   Overcast
3:55 AM 43.3 °F 39.2 °F 19.2 °F 38% 30.34 in 10.0 mi NNE 6.9 mph - N/A   Overcast
4:15 AM 41.2 °F 37.3 °F 19.8 °F 42% 30.34 in 10.0 mi NNE 5.8 mph - N/A   Scattered Clouds
4:35 AM 39.7 °F 35.6 °F 19.9 °F 45% 30.33 in 10.0 mi NNE 5.8 mph - N/A   Scattered Clouds
4:55 AM 38.7 °F 34.3 °F 20.1 °F 47% 30.33 in 10.0 mi NNE 5.8 mph - N/A   Clear
5:15 AM 37.8 °F 34.2 °F 20.3 °F 49% 30.34 in 10.0 mi NNE 4.6 mph - N/A   Clear
5:55 AM 36.9 °F 31.4 °F 20.3 °F 51% 30.34 in 10.0 mi NNE 6.9 mph - N/A   Clear
6:15 AM 36.7 °F 32.0 °F 20.7 °F 52% 30.34 in 10.0 mi NE 5.8 mph - N/A   Clear
6:35 AM 36.3 °F 31.6 °F 21.0 °F 54% 30.35 in 10.0 mi NE 5.8 mph - N/A   Clear
6:55 AM 35.6 °F 31.7 °F 21.2 °F 56% 30.36 in 10.0 mi NE 4.6 mph - N/A   Clear
7:15 AM 34.5 °F 30.4 °F 21.6 °F 59% 30.37 in 10.0 mi NE 4.6 mph - N/A   Clear
7:35 AM 34.0 °F 31.0 °F 21.6 °F 60% 30.38 in 10.0 mi ENE 3.5 mph - N/A   Clear
7:55 AM 34.2 °F 30.0 °F 21.9 °F 61% 30.38 in 10.0 mi NE 4.6 mph - N/A   Clear
8:15 AM 35.8 °F 30.9 °F 22.1 °F 58% 30.39 in 10.0 mi NE 5.8 mph - N/A   Clear
8:35 AM 38.3 °F 33.9 °F 21.9 °F 52% 30.40 in 10.0 mi East 5.8 mph - N/A   Clear
8:55 AM 40.3 °F 34.4 °F 21.7 °F 48% 30.40 in 10.0 mi East 9.2 mph - N/A   Clear
9:15 AM 42.3 °F 35.9 °F 21.4 °F 43% 30.40 in 10.0 mi East 11.5 mph 17.3 mph N/A   Clear
9:35 AM 43.7 °F 36.9 °F 21.2 °F 41% 30.39 in 10.0 mi East 13.8 mph 24.2 mph N/A   Clear
9:55 AM 45.5 °F 38.9 °F 20.8 °F 38% 30.39 in 10.0 mi East 15.0 mph 20.7 mph N/A   Clear
10:15 AM 46.8 °F - 20.5 °F 35% 30.38 in 10.0 mi East 13.8 mph 18.4 mph N/A   Clear
10:35 AM 48.4 °F - 19.2 °F 32% 30.38 in 10.0 mi East 11.5 mph 17.3 mph N/A   Clear
10:55 AM 49.1 °F - 18.5 °F 30% 30.37 in 10.0 mi East 12.7 mph 20.7 mph N/A   Clear
11:15 AM 51.1 °F - 19.0 °F 28% 30.37 in 10.0 mi East 13.8 mph 19.6 mph N/A   Clear
11:35 AM 52.2 °F - 18.3 °F 26% 30.36 in 10.0 mi ESE 11.5 mph - N/A   Clear
12:15 PM 54.7 °F - 16.9 °F 23% 30.35 in 10.0 mi East 12.7 mph 16.1 mph N/A   Clear
12:35 PM 55.6 °F - 16.3 °F 21% 30.34 in 10.0 mi East 11.5 mph 18.4 mph N/A   Clear
12:55 PM 56.5 °F - 16.5 °F 21% 30.33 in 10.0 mi ESE 11.5 mph 17.3 mph N/A   Clear
1:35 PM 57.9 °F - 17.4 °F 21% 30.30 in 10.0 mi East 9.2 mph - N/A   Clear
1:55 PM 58.6 °F - 17.4 °F 20% 30.29 in 10.0 mi East 10.4 mph 17.3 mph N/A   Clear
2:15 PM 58.5 °F - 17.2 °F 20% 30.27 in 10.0 mi ESE 10.4 mph - N/A   Scattered Clouds
2:35 PM 59.4 °F - 17.4 °F 20% 30.26 in 10.0 mi East 11.5 mph - N/A   Overcast
2:55 PM 60.6 °F - 18.7 °F 20% 30.25 in 10.0 mi SE 9.2 mph 17.3 mph N/A   Scattered Clouds
3:15 PM 60.6 °F - 20.1 °F 21% 30.24 in 10.0 mi ESE 9.2 mph 18.4 mph N/A   Clear
3:35 PM 59.9 °F - 20.7 °F 22% 30.24 in 10.0 mi SE 12.7 mph 19.6 mph N/A   Clear
3:55 PM 61.0 °F - 21.9 °F 22% 30.22 in 10.0 mi ESE 9.2 mph 19.6 mph N/A   Mostly Cloudy
4:15 PM 60.8 °F - 22.6 °F 23% 30.21 in 10.0 mi ESE 10.4 mph 18.4 mph N/A   Scattered Clouds
4:35 PM 60.8 °F - 23.2 °F 24% 30.21 in 10.0 mi ESE 11.5 mph 16.1 mph N/A   Scattered Clouds
5:15 PM 59.0 °F - 24.3 °F 26% 30.18 in 10.0 mi ESE 10.4 mph 17.3 mph N/A   Overcast
5:55 PM 58.3 °F - 27.1 °F 30% 30.17 in 10.0 mi ESE 11.5 mph - N/A   Mostly Cloudy
6:15 PM 57.7 °F - 28.2 °F 32% 30.16 in 10.0 mi ESE 8.1 mph - N/A   Overcast
6:35 PM 57.4 °F - 29.3 °F 34% 30.16 in 10.0 mi SE 10.4 mph - N/A   Overcast
6:55 PM 55.9 °F - 32.4 °F 41% 30.15 in 10.0 mi SE 9.2 mph - N/A Rain Light Rain
7:15 PM 55.2 °F - 34.0 °F 45% 30.16 in 10.0 mi SE 10.4 mph - N/A   Drizzle
7:35 PM 52.7 °F - 38.5 °F 58% 30.17 in 10.0 mi SE 6.9 mph - N/A Rain Light Rain
7:55 PM 50.9 °F - 41.7 °F 71% 30.17 in 10.0 mi Calm Calm - N/A   Light Drizzle
8:15 PM 50.5 °F - 43.2 °F 76% 30.16 in 7.0 mi SE 9.2 mph - 0.01 in Rain Light Rain
8:35 PM 50.0 °F - 44.6 °F 82% 30.16 in 10.0 mi ESE 5.8 mph - 0.02 in   Overcast
9:15 PM 49.3 °F - 45.5 °F 87% 30.14 in 10.0 mi ESE 5.8 mph - N/A   Overcast
9:35 PM 49.3 °F - 45.5 °F 87% 30.14 in 10.0 mi SE 5.8 mph - N/A   Overcast
9:55 PM 49.5 °F - 45.5 °F 86% 30.12 in 10.0 mi ESE 5.8 mph - N/A   Overcast
10:15 PM 49.5 °F - 45.9 °F 87% 30.12 in 10.0 mi SE 5.8 mph - N/A   Overcast
10:35 PM 49.6 °F - 45.7 °F 86% 30.11 in 10.0 mi SE 6.9 mph - N/A   Overcast
10:55 PM 50.0 °F - 45.9 °F 86% 30.11 in 10.0 mi SE 5.8 mph - N/A   Overcast
11:35 PM 50.9 °F - 45.7 °F 82% 30.08 in 10.0 mi SE 11.5 mph - N/A   Overcast
11:55 PM 51.4 °F - 45.5 °F 80% 30.07 in 10.0 mi SE 8.1 mph - N/A   Overcast